Flag for U.S.A. Weather past 2 weeks in Overland Park, Kansas, U.S.A.

Now
82 °F

Sunny.


Feels Like: 82 °F
Forecast: 67 / 94 °F
Wind: 12 mph from Southeast

Location: Johnson County Executive Airport

Current Time: Jul 24, 2014 at 7:03:19 PM

Latest Report: Jul 24, 2014 at 5:53 PM


Visibility: 10 mi

Pressure: 29.97 "Hg

Humidity: 46%

Dew point: 59 °F

Location of Overland ParkLocation

Historic Weather in Overland Park — Graph

°F

Overland Park temperature yesterday

Maximum temperature yesterday: 89 °F (at 2:53 PM)
Minimum temperature yesterday: 72 °F (at 11:53 PM)
Average temperature yesterday: 81 °F

Past Weeks' High & Low Weather Summary

 TemperatureHumidityPressure
High93 °F (Jul 22, 6:53 PM)100% (Jul 18, 6:53 AM)30.14 "Hg (Jul 18, 6:53 AM)
Low54 °F (Jul 16, 4:53 AM)41% (Jul 23, 2:53 PM)29.89 "Hg (Jul 20, 6:53 PM)
Average74 °F71%30.02 "Hg
* Reported Jul 9 5:53 PM — Jul 24 5:53 PM, Overland Park, Weather by CustomWeather, © 2014

Note: Actual official high and low records may vary slightly from our data, if they occured in-between our weather recording intervals... More about our weather records

Advertising

Overland Park weather history for previous 24 hours

 ConditionsComfort  
Time TempWeatherWind HumidityBarometerVisibility
5:53 PM
Jul 24
82 °FSunny.12 mph46%29.97 "Hg10 mi
4:53 PM82 °FSunny.10 mph48%29.99 "Hg10 mi
3:53 PM82 °FSunny.14 mph43%30.02 "Hg10 mi
2:53 PM80 °FSunny.8 mph47%30.05 "Hg10 mi
1:53 PM80 °FSunny.10 mph49%30.09 "Hg10 mi
12:53 PM78 °FSunny.12 mph52%30.10 "Hg10 mi
11:53 AM77 °FSunny.9 mph54%30.11 "Hg10 mi
10:53 AM75 °FSunny.13 mph55%30.12 "Hg10 mi
9:53 AM73 °FSunny.13 mph62%30.13 "Hg10 mi
8:53 AM71 °FSunny.13 mph68%30.11 "Hg10 mi
7:53 AM68 °FSunny.7 mph76%30.11 "Hg10 mi
6:53 AM65 °FClear.7 mph81%30.11 "Hg10 mi
5:53 AM65 °FClear.7 mph85%30.09 "Hg10 mi
4:53 AM66 °FClear.7 mph81%30.09 "Hg10 mi
3:53 AM67 °FClear.6 mph81%30.08 "Hg10 mi
2:53 AM68 °FClear.7 mph82%30.08 "Hg10 mi
1:53 AM70 °FClear.9 mph76%30.09 "Hg10 mi
12:53 AM71 °FClear.9 mph73%30.09 "Hg10 mi
11:53 PM
Jul 23
72 °FClear.6 mph71%30.10 "Hg10 mi
10:53 PM74 °FClear.5 mph67%30.10 "Hg10 mi
9:53 PM76 °FClear.6 mph62%30.09 "Hg10 mi
8:53 PM78 °FSunny.7 mph56%30.07 "Hg10 mi
7:53 PM81 °FSunny.8 mph54%30.06 "Hg10 mi
Weather by CustomWeather, © 2014

See weather overviewHow to use our weather pages